shoulder
new_line
new_line
first
second
third
Al di la della Luna; Beyond the Moon; Astrophotography; Astrofotografia; Danilo Pivato
 
 
         
         
2002

Orbital Elements

Epoch 2002 Mar 27.0 TT = JDT 2452360.5
T 2002 Mar. 18.9799 TT                                                           MPCN
q     0.507069                 (2000.0)                          P               Q
n   +0.019600      Peri.    34.6670              -0.5491478     -0.6906892
a                          Node   93.3703             +0.6195960     -0.7142941
e   0.990062        Incl.     28.1207             +0.5608363    +0.1128374
                        
 
         
         
2002.03.09
2002.04.14
         
         
       
         
         
         
         
         
         

 

       
 
Since: 01/01/2004
 
       
 
Since: 01/11/2010